Helicity
263 165 187 221 169 123 136 165 167 172 153 130 108 110 105 92 82 96 108 96 72 45 16 8 12 33 33 44 53 70 73 37
321 281 217 181 183 160 128 154 186 180 180 146 132 105 116 101 95 106 103 90 71 49 17 9 19 14 21 46 57 60 65 50
272 302 265 196 202 156 169 124 180 195 187 182 159 106 107 110 98 103 97 85 73 56 23 9 21 -5 -13 39 94 72 40 62
233 256 236 225 205 205 170 162 159 199 201 205 184 139 111 130 121 107 96 82 78 60 32 9 19 16 42 62 100 104 92 53
253 280 264 231 252 276 242 190 196 199 201 236 222 191 145 159 152 135 120 98 91 70 53 16 -10 15 56 113 127 113 95 62
294 324 294 251 269 298 263 244 202 225 222 252 296 256 203 196 167 161 147 121 112 82 57 13 -1 7 65 108 129 117 96 57
207 288 333 333 308 286 290 255 248 237 257 260 315 303 280 260 191 173 181 147 118 97 67 23 3 -4 94 71 138 90 84 45
-16 167 255 304 381 331 298 286 279 220 279 285 305 347 333 321 233 206 206 172 134 106 74 37 2 39 82 71 128 91 112 68
32 71 202 314 320 332 343 309 306 276 267 302 312 367 369 371 271 235 229 206 153 132 104 76 47 65 53 63 146 125 110 97
66 110 179 299 300 314 320 365 343 281 264 307 289 356 391 377 313 244 249 252 196 156 125 102 53 74 65 66 154 133 83 87
206 118 152 252 326 377 407 348 402 323 307 292 276 343 387 401 353 276 269 280 224 183 162 143 110 119 106 109 137 192 124 93
-8 27 157 169 281 350 350 348 384 379 325 294 285 335 373 394 360 314 289 271 255 222 184 195 166 199 151 143 146 160 152 107
-6 55 90 135 79 250 302 239 311 326 303 270 298 294 364 407 396 377 289 258 251 235 236 241 242 253 273 183 173 134 128 134
-5 47 55 82 134 71 294 260 197 361 333 312 292 315 329 391 398 407 323 282 260 264 249 275 289 276 258 254 238 217 148 99
81 84 49 -38 117 17 71 287 273 218 311 370 363 326 340 378 385 400 351 352 331 274 277 276 315 264 304 318 360 242 239 139
-41 62 150 -17 -34 74 -98 190 298 210 215 352 361 307 378 387 438 389 347 373 306 314 315 322 366 336 358 304 330 298 351 281
53 39 123 295 -91 -13 -140 -210 105 219 266 273 364 365 359 367 422 405 360 393 321 321 330 318 404 399 379 344 325 308 309 331
126 132 46 209 282 5 22 44 -15 34 98 238 303 308 324 341 349 407 368 375 339 331 339 393 400 382 372 342 342 391 333 348
237 233 191 238 317 107 117 28 -10 102 80 158 231 276 478 268 326 353 394 343 336 382 364 373 407 410 409 412 367 393 372 354
352 394 343 319 316 210 277 -6 -15 -38 65 57 300 139 276 257 259 214 302 305 344 358 395 375 468 456 429 426 439 379 401 333
Wind_Speed
8 9 11 15 17 15 16 16 18 21 24 25 25 25 22 15 13 16 19 22 26 34 34 36 32 24 5 15 30 29 15 11
14 14 13 12 16 20 18 17 18 20 23 24 25 25 23 17 13 15 18 20 23 31 35 30 28 28 7 30 36 39 38 5
19 17 18 16 20 22 22 21 18 20 22 24 25 22 23 21 14 13 14 17 22 28 31 29 23 27 53 43 35 44 9 3
26 26 26 22 22 25 25 23 21 20 20 23 22 23 24 22 18 16 15 15 21 24 26 30 16 10 43 46 23 6 7 7
30 28 31 30 29 30 29 27 24 22 23 25 22 25 24 22 21 20 16 14 14 18 18 17 18 22 36 44 16 4 7 6
37 37 33 32 31 33 35 33 31 28 27 29 27 28 31 28 27 26 24 18 16 16 16 19 13 11 32 42 24 3 8 3
37 39 41 36 34 34 38 38 37 34 31 33 32 32 34 33 32 30 32 27 21 19 17 18 14 18 23 34 40 3 4 7
45 43 42 45 38 38 40 43 44 41 37 37 37 34 37 37 37 37 39 35 30 24 21 20 16 13 11 31 43 3 5 4
110 61 51 48 48 44 45 45 47 46 44 41 42 39 42 39 41 41 44 42 37 33 25 21 18 20 14 18 20 4 7 5
94 80 57 53 53 53 49 49 51 50 49 45 47 44 45 42 44 45 48 48 44 40 33 27 22 20 19 14 17 10 7 6
70 77 67 60 61 60 58 55 56 55 54 52 52 50 50 46 48 48 49 55 52 48 40 35 29 25 23 18 23 16 11 12
76 77 68 78 71 67 67 65 65 60 59 58 56 54 53 49 49 51 52 55 59 56 49 43 37 32 30 23 25 21 18 14
82 82 80 85 83 73 74 72 68 70 66 63 61 59 57 54 53 54 56 56 63 60 55 47 42 36 32 30 28 28 22 17
89 88 80 85 82 81 80 76 80 70 66 68 66 64 61 58 56 58 60 58 66 64 60 52 50 45 37 35 38 45 37 20
96 95 93 83 87 83 76 87 82 82 73 76 74 69 66 65 61 62 65 63 69 67 65 57 51 50 43 38 42 49 32 37
94 96 94 91 91 89 95 86 92 82 82 75 78 76 75 71 66 67 70 67 69 70 70 62 56 55 52 50 46 45 46 50
88 86 93 92 92 91 92 99 99 94 93 82 80 83 83 77 71 70 73 72 72 70 73 71 62 59 55 54 54 45 41 43
85 85 80 85 87 89 90 92 93 111 107 99 92 91 103 84 75 73 75 76 74 72 70 73 68 62 61 58 56 53 44 49
83 83 80 78 79 80 82 83 86 86 102 110 90 102 100 88 80 77 79 77 75 77 71 74 72 70 64 63 62 58 48 50
83 79 75 73 70 67 70 77 79 81 87 109 109 123 84 94 83 76 82 75 74 77 77 75 79 73 69 66 62 60 56 56
Wind_Direction
254 228 215 188 180 180 165 152 144 137 139 140 141 140 139 141 131 110 99 92 89 99 100 103 97 93 102 227 215 212 225 70
275 264 249 219 205 193 188 178 164 155 149 151 152 150 150 154 160 132 116 104 97 103 107 105 101 100 90 218 214 212 210 72
278 265 257 246 221 209 201 190 184 173 162 161 160 162 160 163 189 166 135 117 108 109 110 111 107 108 162 203 218 213 106 116
274 271 265 250 235 223 214 206 200 194 181 174 176 175 174 177 189 188 159 137 120 117 115 115 116 218 211 200 231 217 134 103
270 269 262 254 249 233 229 224 218 211 196 184 191 185 187 192 197 207 205 164 140 128 123 122 122 232 225 212 247 210 210 212
267 268 266 260 252 237 233 229 223 220 208 195 192 194 190 195 200 208 217 207 172 152 145 136 136 217 232 224 237 104 85 202
270 271 263 257 250 244 236 232 228 224 216 203 198 197 196 199 208 208 221 221 195 179 168 153 158 137 233 236 227 229 98 102
276 268 267 261 246 240 239 234 232 230 224 210 203 202 200 201 206 214 221 221 218 204 181 171 175 193 171 239 230 209 210 151
269 269 262 258 248 243 240 237 232 230 227 215 206 204 198 204 205 216 220 221 218 220 206 195 191 223 192 240 247 211 205 190
271 271 259 250 245 246 242 239 238 232 231 223 208 206 199 205 207 213 219 219 218 219 209 201 199 200 206 220 236 213 203 208
304 283 268 250 246 247 241 240 237 233 231 226 211 208 200 204 205 212 213 219 219 221 216 211 213 210 207 214 234 235 226 240
304 295 291 277 253 243 245 242 242 238 231 228 214 213 205 205 206 206 207 215 220 222 220 222 223 218 225 221 236 240 235 236
302 298 291 285 272 249 247 244 241 241 237 229 219 215 210 206 206 205 204 208 218 217 222 216 220 219 223 234 242 244 237 235
294 293 291 281 284 266 249 248 238 233 232 229 221 218 214 211 208 207 203 205 219 217 219 218 225 218 222 226 238 248 250 231
293 288 285 283 278 272 266 246 245 238 232 231 225 217 216 213 213 210 207 206 217 215 219 211 210 217 216 233 240 250 245 256
297 288 285 276 276 273 262 263 241 243 240 231 228 218 218 213 216 212 213 209 212 216 219 217 218 214 224 235 245 251 247 255
306 299 284 281 278 272 266 269 269 243 241 234 230 224 218 213 214 213 217 219 216 214 218 220 220 218 219 226 240 249 251 260
309 299 295 283 275 271 265 261 265 246 245 243 237 232 222 216 212 215 216 218 219 218 218 222 220 220 222 227 231 240 240 254
316 308 295 293 281 268 264 268 267 261 254 246 245 244 221 217 208 218 220 216 218 221 218 222 224 225 220 228 234 242 244 254
324 313 305 299 286 277 265 269 269 266 268 254 250 252 252 233 223 220 224 220 220 222 224 225 228 228 227 232 236 237 245 246